Weather History for Knoxville, TN

Change the Weather History Date:

Saturday, April 12, 2014

  Actual Average Record
Temperature  
Mean Temperature 66 °F 58 °F  
Max Temperature 79 °F 69 °F 87 °F (1930)
Min Temperature 52 °F 46 °F 26 °F (1989)
Degree Days  
Heating Degree Days 0 8  
Month to date heating degree days 65 114  
Since 1 July heating degree days 3645 3471  
Cooling Degree Days 1 1  
Month to date cooling degree days 6 10  
Year to date cooling degree days 6 15  
Growing Degree Days 16 (Base 50)    
Moisture  
Dew Point 52 °F    
Average Humidity 70    
Maximum Humidity 100    
Minimum Humidity 39    
Precipitation  
Precipitation 0.00 in 0.13 in 2.04 in (1926)
Month to date precipitation 2.27 1.60  
Year to date precipitation 12.76 14.52  
Snow  
Snow 0.00 in 0.00 in - ()
Month to date snowfall 0.0 0.3  
Since 1 July snowfall 12.4 6.3  
Snow Depth 0.00 in    
Sea Level Pressure  
Sea Level Pressure 30.11 in    
Wind  
Wind Speed 5 mph (WSW)    
Max Wind Speed 15 mph    
Max Gust Speed 19 mph    
Visibility 9 miles    
Events      
T = Trace of Precipitation, MM = Missing Value Source: NWS Daily Summary

Daily Weather History Graph

Daily Weather History Graph

Search for Another Location

Airport:

Trip Planner

Search our weather history database for the weather conditions in past years. The results will help you decide how hot, cold, wet, or windy it might be!

Date:

Astronomy

Apr. 12, 2014 Rise Set
Actual Time 7:07 AM EDT 8:06 PM EDT
Civil Twilight 6:40 AM EDT 8:33 PM EDT
Nautical Twilight 6:09 AM EDT 9:04 PM EDT
Astronomical Twilight 5:37 AM EDT 9:36 PM EDT
Moon 5:48 PM EDT (4/12) 5:28 AM EDT (4/12)
Length of Visible Light 13h 52m
Length of Day
12h 59m
Waxing Gibbous, 93% of the Moon is Illuminated
Apr 12
Waxing Gibbous
Apr 15
Full
Apr 22
Last Quarter
Apr 29
New
May 6
First Quarter

Hourly Weather History & Observations

Time (EDT) Temp. Dew Point Humidity Pressure Visibility Wind Dir Wind Speed Gust Speed Precip Events Conditions
12:53 AM 61.0 °F 53.1 °F 75% 30.15 in 10.0 mi South 6.9 mph - 0.00 in   Mostly Cloudy
1:53 AM 59.0 °F 52.0 °F 78% 30.11 in 10.0 mi South 13.8 mph - N/A   Mostly Cloudy
2:53 AM 57.0 °F 52.0 °F 83% 30.09 in 10.0 mi WSW 6.9 mph - N/A   Scattered Clouds
3:53 AM 57.0 °F 52.0 °F 83% 30.12 in 10.0 mi West 10.4 mph - N/A   Scattered Clouds
4:53 AM 53.1 °F 51.1 °F 93% 30.14 in 9.0 mi SW 5.8 mph - N/A   Mostly Cloudy
5:53 AM 54.0 °F 52.0 °F 93% 30.16 in 9.0 mi SW 3.5 mph - N/A   Mostly Cloudy
6:53 AM 54.0 °F 52.0 °F 93% 30.17 in 7.0 mi Calm Calm - N/A   Scattered Clouds
7:53 AM 52.0 °F 52.0 °F 100% 30.19 in 3.0 mi Calm Calm - N/A   Partly Cloudy
8:53 AM 57.9 °F 54.0 °F 87% 30.20 in 5.0 mi East 3.5 mph - N/A   Partly Cloudy
9:53 AM 62.1 °F 54.0 °F 75% 30.20 in 10.0 mi Calm Calm - N/A   Partly Cloudy
10:53 AM 66.9 °F 53.1 °F 61% 30.19 in 10.0 mi Calm Calm - N/A   Partly Cloudy
11:53 AM 70.0 °F 54.0 °F 57% 30.19 in 10.0 mi West 3.5 mph - N/A   Partly Cloudy
12:53 PM 73.0 °F 52.0 °F 48% 30.16 in 10.0 mi WSW 12.7 mph - N/A   Partly Cloudy
1:53 PM 73.9 °F 51.1 °F 45% 30.12 in 10.0 mi Calm Calm - N/A   Scattered Clouds
2:53 PM 75.0 °F 52.0 °F 44% 30.09 in 10.0 mi Calm Calm - N/A   Partly Cloudy
3:53 PM 78.1 °F 52.0 °F 40% 30.05 in 10.0 mi NW 8.1 mph - N/A   Partly Cloudy
4:53 PM 78.1 °F 52.0 °F 40% 30.03 in 10.0 mi WNW 6.9 mph - N/A   Partly Cloudy
5:53 PM 79.0 °F 53.1 °F 40% 30.01 in 10.0 mi West 6.9 mph - N/A   Partly Cloudy
6:53 PM 77.0 °F 52.0 °F 42% 30.01 in 10.0 mi West 6.9 mph - N/A   Partly Cloudy
7:53 PM 73.9 °F 52.0 °F 46% 30.03 in 10.0 mi WSW 4.6 mph - N/A   Partly Cloudy
8:53 PM 71.1 °F 51.1 °F 49% 30.03 in 10.0 mi SSW 6.9 mph - N/A   Clear
10:53 PM 64.9 °F 51.1 °F 61% 30.04 in 10.0 mi South 3.5 mph - N/A   Clear
11:53 PM 64.9 °F 51.1 °F 61% 30.04 in 10.0 mi SSW 5.8 mph - N/A   Partly Cloudy